KN6KS Weather Reports


Display with metric or nautical units.
time (UTC)temp
F
wind
direction
speed
MPH
gust
MPH
rain 1hr
in
rain 24hr
in
rain mn
in
humidity
%
barometer
mb
20260901231206 81 264 18.0 22.0 0.00 0.00 0.00 19 1012.7
20260901230701 81 252 22.0 25.0 0.00 0.00 0.00 19 1012.7
20260901230155 81 233 24.0 29.0 0.00 0.00 0.00 19 1012.6
20260901225651 82 245 17.0 21.0 0.00 0.00 0.00 19 1012.4
20260901225145 82 238 13.0 15.0 0.00 0.00 0.00 18 1012.7
20260901224642 82 230 22.0 26.0 0.00 0.00 0.00 19 1012.7
20260901224138 82 182 22.0 26.0 0.00 0.00 0.00 18 1012.8
20260901223632 82 221 21.0 30.0 0.00 0.00 0.00 18 1012.5
20260901223128 81 245 14.0 16.0 0.00 0.00 0.00 21 1012.6
20260901222624 82 241 16.0 20.0 0.00 0.00 0.00 22 1012.7
20260901222120 82 222 17.0 20.0 0.00 0.00 0.00 21 1012.6
20260901221615 81 253 18.0 22.0 0.00 0.00 0.00 22 1012.9
20260901221111 82 220 16.0 26.0 0.00 0.00 0.00 23 1012.8
20260901220610 82 208 18.0 22.0 0.00 0.00 0.00 23 1013.2
20260901220109 81 176 15.0 20.0 0.00 0.00 0.00 23 1013.1
20260901215608 81 230 27.0 32.0 0.00 0.00 0.00 21 1013.0
20260901215102 81 240 24.0 27.0 0.00 0.00 0.00 23 1013.1
20260901214601 82 226 22.0 26.0 0.00 0.00 0.00 21 1013.3
20260901214101 82 233 24.0 27.0 0.00 0.00 0.00 22 1013.0
20260901213555 82 236 25.0 29.0 0.00 0.00 0.00 22 1013.0
20260901213050 82 232 14.0 16.0 0.00 0.00 0.00 22 1013.0
20260901212550 81 248 21.0 25.0 0.00 0.00 0.00 20 1013.2
20260901212046 81 230 27.0 31.0 0.00 0.00 0.00 21 1013.4
20260901211541 81 210 16.0 20.0 0.00 0.00 0.00 20 1013.3
20260901211037 81 268 23.0 27.0 0.00 0.00 0.00 19 1013.1
20260901210532 81 254 29.0 38.0 0.00 0.00 0.00 19 1013.2
20260901210028 80 210 22.0 25.0 0.00 0.00 0.00 19 1013.2
20260901205523 81 221 22.0 26.0 0.00 0.00 0.00 19 1013.3
20260901205018 80 243 27.0 30.0 0.00 0.00 0.00 20 1013.1
20260901204515 80 270 12.0 16.0 0.00 0.00 0.00 21 1013.9
20260901204014 81 249 14.0 18.0 0.00 0.00 0.00 21 1014.0
20260901203509 81 206 16.0 18.0 0.00 0.00 0.00 20 1014.2
20260901203004 81 216 10.0 13.0 0.00 0.00 0.00 20 1014.2
20260901202459 81 247 8.0 9.0 0.00 0.00 0.00 20 1014.6
20260901201955 82 178 7.0 9.0 0.00 0.00 0.00 20 1014.7
20260901201449 81 241 14.0 15.0 0.00 0.00 0.00 20 1014.6
20260901200944 80 171 10.0 16.0 0.00 0.00 0.00 20 1014.5
20260901200438 80 265 5.0 8.0 0.00 0.00 0.00 21 1014.8
20260901195937 80 202 6.0 7.0 0.00 0.00 0.00 19 1014.8
20260901195436 80 203 12.0 15.0 0.00 0.00 0.00 18 1014.8
20260901194931 80 212 8.0 9.0 0.00 0.00 0.00 18 1014.7
20260901194426 80 216 15.0 23.0 0.00 0.00 0.00 17 1015.0
20260901193923 80 215 19.0 25.0 0.00 0.00 0.00 17 1015.2
20260901193421 80 205 7.0 9.0 0.00 0.00 0.00 18 1015.3
20260901192916 80 187 18.0 22.0 0.00 0.00 0.00 17 1015.0
20260901192411 80 141 11.0 15.0 0.00 0.00 0.00 18 1014.9
20260901191908 80 205 18.0 22.0 0.00 0.00 0.00 18 1015.0
20260901191403 79 251 11.0 14.0 0.00 0.00 0.00 19 1015.4
20260901190859 79 189 6.0 8.0 0.00 0.00 0.00 19 1015.2
20260901190359 80 209 10.0 11.0 0.00 0.00 0.00 19 1015.3
20260901185857 80 232 9.0 13.0 0.00 0.00 0.00 20 1015.6
20260901185356 79 245 11.0 13.0 0.00 0.00 0.00 19 1015.2
20260901184851 79 200 11.0 14.0 0.00 0.00 0.00 19 1015.4
20260901184347 79 214 11.0 14.0 0.00 0.00 0.00 18 1015.4
20260901183842 79 214 13.0 18.0 0.00 0.00 0.00 17 1015.3
20260901183341 78 205 10.0 18.0 0.00 0.00 0.00 18 1015.2
20260901182838 78 222 15.0 18.0 0.00 0.00 0.00 18 1015.4
20260901182338 78 236 16.0 18.0 0.00 0.00 0.00 17 1015.6
20260901181832 78 191 17.0 23.0 0.00 0.00 0.00 16 1015.5
20260901181327 78 231 14.0 17.0 0.00 0.00 0.00 17 1015.5
20260901180826 78 194 17.0 21.0 0.00 0.00 0.00 17 1015.5
20260901180325 78 179 13.0 14.0 0.00 0.00 0.00 16 1015.4
20260901175825 79 201 15.0 22.0 0.00 0.00 0.00 16 1015.2
20260901175319 79 179 10.0 13.0 0.00 0.00 0.00 16 1015.4
20260901174814 78 195 8.0 10.0 0.00 0.00 0.00 16 1015.5
20260901174310 78 237 9.0 10.0 0.00 0.00 0.00 16 1015.4
20260901173805 78 221 10.0 11.0 0.00 0.00 0.00 16 1015.2
20260901173300 78 230 9.0 11.0 0.00 0.00 0.00 17 1015.4
20260901172757 78 265 6.0 7.0 0.00 0.00 0.00 17 1015.3
20260901172256 77 253 9.0 10.0 0.00 0.00 0.00 16 1015.2
20260901171754 78 236 11.0 13.0 0.00 0.00 0.00 16 1015.4
20260901171253 77 214 10.0 11.0 0.00 0.00 0.00 16 1015.2
20260901170752 77 237 6.0 9.0 0.00 0.00 0.00 17 1015.2
20260901170247 77 274 9.0 11.0 0.00 0.00 0.00 17 1015.3
20260901165745 77 193 11.0 13.0 0.00 0.00 0.00 16 1015.2
20260901165240 77 255 7.0 9.0 0.00 0.00 0.00 16 1015.2
20260901164737 77 191 6.0 8.0 0.00 0.00 0.00 16 1015.2
20260901164232 76 219 9.0 10.0 0.00 0.00 0.00 16 1015.2
20260901163727 76 186 12.0 15.0 0.00 0.00 0.00 16 1015.2
20260901163226 76 251 10.0 11.0 0.00 0.00 0.00 16 1014.9
20260901162722 75 164 8.0 10.0 0.00 0.00 0.00 16 1014.9
20260901162221 76 203 6.0 7.0 0.00 0.00 0.00 17 1015.2
20260901161720 75 187 7.0 9.0 0.00 0.00 0.00 17 1015.0
20260901161215 75 239 13.0 14.0 0.00 0.00 0.00 16 1015.2
20260901160711 75 214 11.0 15.0 0.00 0.00 0.00 16 1015.0
20260901160207 75 233 5.0 6.0 0.00 0.00 0.00 16 1015.4
20260901155705 75 183 9.0 13.0 0.00 0.00 0.00 16 1015.4
20260901155201 74 228 0.0 1.0 0.00 0.00 0.00 17 1015.3
20260901154655 74 211 3.0 3.0 0.00 0.00 0.00 17 1015.2
20260901154150 72 238 0.0 1.0 0.00 0.00 0.00 17 1015.2
20260901153646 73 270 1.0 1.0 0.00 0.00 0.00 16 1015.2
20260901153145 71 210 0.0 1.0 0.00 0.00 0.00 16 1015.2
20260901152640 70 55 1.0 2.0 0.00 0.00 0.00 16 1015.2
20260901152139 70 246 1.0 1.0 0.00 0.00 0.00 16 1015.4
20260901151635 69 242 1.0 1.0 0.00 0.00 0.00 17 1015.3
20260901151134 68 237 1.0 1.0 0.00 0.00 0.00 20 1015.2
20260901150633 68 272 1.0 2.0 0.00 0.00 0.00 22 1015.0
20260901150132 68 250 2.0 2.0 0.00 0.00 0.00 21 1015.2
20260901145630 66 314 2.0 2.0 0.00 0.00 0.00 25 1015.0
20260901145129 66 314 1.0 2.0 0.00 0.00 0.00 28 1015.2
20260901144625 65 275 1.0 1.0 0.00 0.00 0.00 31 1014.9
20260901144121 64 240 1.0 1.0 0.00 0.00 0.00 32 1015.3
20260901143615 64 259 2.0 2.0 0.00 0.00 0.00 34 1014.9
20260901143112 63 298 1.0 1.0 0.00 0.00 0.00 35 1014.9
20260901142608 63 243 2.0 2.0 0.00 0.00 0.00 36 1015.0
20260901142107 62 336 6.0 8.0 0.00 0.00 0.00 36 1014.9
20260901141602 61 302 0.0 0.0 0.00 0.00 0.00 41 1014.5
20260901141057 61 107 1.0 1.0 0.00 0.00 0.00 42 1014.5
20260901140556 61 163 1.0 1.0 0.00 0.00 0.00 44 1014.4
20260901140055 60 290 1.0 1.0 0.00 0.00 0.00 45 1014.3
20260901135549 60 202 1.0 1.0 0.00 0.00 0.00 46 1014.4
20260901135044 58 90 3.0 3.0 0.00 0.00 0.00 46 1014.4
20260901134540 59 197 2.0 2.0 0.00 0.00 0.00 49 1014.4
20260901134035 59 188 3.0 3.0 0.00 0.00 0.00 47 1014.7
20260901133533 58 332 3.0 3.0 0.00 0.00 0.00 47 1014.3
20260901133027 58 195 0.0 0.0 0.00 0.00 0.00 48 1014.4
20260901132526 58 220 0.0 1.0 0.00 0.00 0.00 50 1014.3
20260901132021 58 250 0.0 0.0 0.00 0.00 0.00 49 1014.2
20260901131520 58 226 0.0 0.0 0.00 0.00 0.00 48 1014.4
20260901131011 58 223 1.0 1.0 0.00 0.00 0.00 47 1014.3
20260901130511 59 229 1.0 2.0 0.00 0.00 0.00 46 1014.5
20260901130009 59 297 1.0 1.0 0.00 0.00 0.00 44 1014.4
20260901125508 59 305 2.0 2.0 0.00 0.00 0.00 43 1014.5
20260901125003 59 287 2.0 2.0 0.00 0.00 0.00 42 1014.5
20260901124458 60 15 3.0 3.0 0.00 0.00 0.00 42 1014.6
20260901123953 60 19 5.0 5.0 0.00 0.00 0.00 40 1014.5
20260901123448 60 346 3.0 3.0 0.00 0.00 0.00 40 1014.4
20260901122946 61 2 3.0 3.0 0.00 0.00 0.00 39 1014.4
20260901122445 60 344 3.0 3.0 0.00 0.00 0.00 38 1014.2
20260901121944 60 253 0.0 0.0 0.00 0.00 0.00 37 1014.5
20260901121440 60 298 2.0 2.0 0.00 0.00 0.00 36 1014.2
20260901120935 60 342 4.0 5.0 0.00 0.00 0.00 36 1014.2
20260901120435 60 304 1.0 2.0 0.00 0.00 0.00 33 1014.2
20260901115931 59 253 1.0 1.0 0.00 0.00 0.00 33 1014.3
20260901115430 60 253 1.0 2.0 0.00 0.00 0.00 33 1014.1
20260901114928 60 321 2.0 2.0 0.00 0.00 0.00 32 1014.1
20260901114423 60 263 1.0 1.0 0.00 0.00 0.00 32 1014.3
20260901113921 60 269 2.0 2.0 0.00 0.00 0.00 30 1014.1
20260901113421 60 246 0.0 0.0 0.00 0.00 0.00 31 1014.0
20260901112916 61 262 2.0 2.0 0.00 0.00 0.00 29 1014.1
20260901112411 60 255 2.0 2.0 0.00 0.00 0.00 30 1014.0
20260901111906 61 247 3.0 3.0 0.00 0.00 0.00 30 1013.9
20260901111404 60 259 2.0 2.0 0.00 0.00 0.00 30 1014.1
20260901110903 61 255 2.0 2.0 0.00 0.00 0.00 29 1014.0
20260901110359 60 280 1.0 1.0 0.00 0.00 0.00 28 1014.1
20260901105855 60 247 0.0 0.0 0.00 0.00 0.00 29 1014.0
20260901105350 60 248 0.0 0.0 0.00 0.00 0.00 30 1014.3
20260901104846 61 252 1.0 1.0 0.00 0.00 0.00 31 1014.2
20260901104341 61 238 1.0 2.0 0.00 0.00 0.00 29 1014.1
20260901103836 61 234 1.0 1.0 0.00 0.00 0.00 29 1014.1
20260901103331 61 253 1.0 1.0 0.00 0.00 0.00 29 1014.3
20260901102826 62 251 0.0 0.0 0.00 0.00 0.00 28 1014.2
20260901102325 61 246 1.0 1.0 0.00 0.00 0.00 29 1014.0
20260901101821 62 239 1.0 1.0 0.00 0.00 0.00 30 1014.2
20260901101321 63 330 2.0 2.0 0.00 0.00 0.00 25 1014.3
20260901100820 63 294 2.0 2.0 0.00 0.00 0.00 25 1014.2
20260901100316 62 267 2.0 2.0 0.00 0.00 0.00 28 1014.2
20260901095814 62 263 1.0 1.0 0.00 0.00 0.00 28 1014.2
20260901095312 62 249 1.0 1.0 0.00 0.00 0.00 30 1014.0
20260901094806 62 259 0.0 0.0 0.00 0.00 0.00 29 1014.3
20260901094301 62 277 1.0 1.0 0.00 0.00 0.00 27 1014.3
20260901093756 63 204 1.0 1.0 0.00 0.00 0.00 31 1014.5
20260901093255 63 238 0.0 0.0 0.00 0.00 0.00 28 1014.3
20260901092751 64 264 0.0 0.0 0.00 0.00 0.00 26 1014.4
20260901092247 64 196 2.0 2.0 0.00 0.00 0.00 28 1014.3
20260901091742 64 48 1.0 1.0 0.00 0.00 0.00 27 1014.3
20260901091237 63 48 2.0 2.0 0.00 0.00 0.00 28 1014.3
20260901090732 63 239 0.0 0.0 0.00 0.00 0.00 27 1014.3
20260901090227 63 187 0.0 1.0 0.00 0.00 0.00 28 1014.3
20260901085723 64 330 1.0 1.0 0.00 0.00 0.00 27 1014.4
20260901085218 66 217 1.0 1.0 0.00 0.00 0.00 26 1014.4
20260901084714 67 238 0.0 1.0 0.00 0.00 0.00 25 1014.4
20260901084211 67 249 3.0 3.0 0.00 0.00 0.00 23 1014.2
20260901083705 67 250 3.0 3.0 0.00 0.00 0.00 24 1014.2
20260901083204 67 245 4.0 5.0 0.00 0.00 0.00 24 1014.4
20260901082658 68 232 5.0 6.0 0.00 0.00 0.00 23 1014.3
20260901082154 68 253 6.0 7.0 0.00 0.00 0.00 22 1014.2
20260901081649 69 254 6.0 8.0 0.00 0.00 0.00 22 1014.3
20260901081148 69 262 6.0 7.0 0.00 0.00 0.00 21 1014.2
20260901080643 69 246 4.0 6.0 0.00 0.00 0.00 22 1014.6
20260901080142 71 240 6.0 6.0 0.00 0.00 0.00 21 1014.5
20260901075637 71 223 7.0 8.0 0.00 0.00 0.00 21 1014.5
20260901075137 70 240 6.0 7.0 0.00 0.00 0.00 21 1014.2
20260901074636 70 234 6.0 7.0 0.00 0.00 0.00 23 1014.4
20260901074132 70 227 5.0 6.0 0.00 0.00 0.00 23 1014.4
20260901073628 70 234 6.0 7.0 0.00 0.00 0.00 24 1014.3
20260901073124 70 247 5.0 6.0 0.00 0.00 0.00 24 1014.1
20260901072619 70 235 6.0 8.0 0.00 0.00 0.00 24 1014.4
20260901072113 70 229 5.0 6.0 0.00 0.00 0.00 24 1014.6
20260901071608 69 236 3.0 5.0 0.00 0.00 0.00 26 1014.4
20260901071106 68 202 2.0 2.0 0.00 0.00 0.00 28 1014.4
20260901070601 67 252 1.0 1.0 0.00 0.00 0.00 30 1014.3
20260901070051 68 290 2.0 2.0 0.00 0.00 0.00 29 1014.2
20260901065544 68 310 2.0 2.0 0.00 0.00 0.00 29 1014.4
20260901065039 68 287 4.0 5.0 0.00 0.00 0.00 29 1014.3
20260901064537 67 330 4.0 5.0 0.00 0.00 0.00 30 1014.3
20260901064033 67 297 1.0 1.0 0.00 0.00 0.00 31 1014.1
20260901063529 67 236 0.0 0.0 0.00 0.00 0.00 31 1014.2
20260901063025 68 337 3.0 3.0 0.00 0.00 0.00 30 1014.3
20260901062520 68 296 0.0 0.0 0.00 0.00 0.00 29 1014.2
20260901062017 68 330 6.0 7.0 0.00 0.00 0.00 29 1014.1
20260901061513 68 257 1.0 1.0 0.00 0.00 0.00 28 1014.0
20260901061007 69 52 1.0 1.0 0.00 0.00 0.00 28 1013.9
20260901060502 70 271 2.0 2.0 0.00 0.00 0.00 26 1014.1
20260901060001 69 4 6.0 7.0 0.00 0.00 0.00 27 1014.1
20260901055458 69 243 0.0 0.0 0.00 0.00 0.00 29 1014.0
20260901054954 69 277 2.0 2.0 0.00 0.00 0.00 29 1014.1
20260901054451 69 274 2.0 2.0 0.00 0.00 0.00 31 1014.3
20260901053947 69 279 4.0 5.0 0.00 0.00 0.00 32 1014.3
20260901053442 69 248 5.0 6.0 0.00 0.00 0.00 35 1014.1
20260901052938 69 284 3.0 3.0 0.00 0.00 0.00 36 1014.2
20260901052433 69 286 2.0 2.0 0.00 0.00 0.00 36 1014.0
20260901051932 69 278 3.0 3.0 0.00 0.00 0.00 38 1014.2
20260901051427 69 254 0.0 0.0 0.00 0.00 0.00 39 1014.2
20260901050921 69 23 7.0 8.0 0.00 0.00 0.00 39 1014.1
20260901050418 69 51 5.0 7.0 0.00 0.00 0.00 40 1013.9
20260901045917 73 39 4.0 5.0 0.00 0.00 0.00 30 1013.8
20260901045412 73 241 6.0 10.0 0.00 0.00 0.00 22 1013.6
20260901044907 73 264 14.0 18.0 0.00 0.00 0.00 22 1013.1
20260901044403 73 226 16.0 21.0 0.00 0.00 0.00 23 1013.0
20260901043858 73 217 16.0 20.0 0.00 0.00 0.00 25 1013.2
20260901043349 73 195 13.0 14.0 0.00 0.00 0.00 27 1013.1
20260901042848 72 224 15.0 21.0 0.00 0.00 0.00 29 1012.9
20260901042343 72 191 14.0 17.0 0.00 0.00 0.00 29 1013.1
20260901041838 72 246 13.0 16.0 0.00 0.00 0.00 31 1013.1
20260901041334 72 196 11.0 17.0 0.00 0.00 0.00 32 1013.1
20260901040828 72 232 13.0 17.0 0.00 0.00 0.00 33 1013.0
20260901040327 72 231 11.0 13.0 0.00 0.00 0.00 35 1013.1
20260901035826 72 223 12.0 13.0 0.00 0.00 0.00 36 1013.0
20260901035325 72 230 11.0 14.0 0.00 0.00 0.00 36 1013.0
20260901034824 71 238 11.0 11.0 0.00 0.00 0.00 39 1013.1
20260901034319 72 233 15.0 20.0 0.00 0.00 0.00 40 1013.0
20260901033814 72 231 17.0 21.0 0.00 0.00 0.00 40 1012.8
20260901033313 72 255 14.0 16.0 0.00 0.00 0.00 41 1012.6
20260901032812 72 257 15.0 16.0 0.00 0.00 0.00 42 1012.7
20260901032311 72 222 15.0 17.0 0.00 0.00 0.00 42 1012.5
20260901031807 73 247 16.0 20.0 0.00 0.00 0.00 41 1012.6
20260901031303 73 246 15.0 16.0 0.00 0.00 0.00 41 1012.6
20260901030802 73 220 15.0 17.0 0.00 0.00 0.00 41 1012.5
20260901030258 73 233 22.0 25.0 0.00 0.00 0.00 40 1012.4
20260901025756 74 253 18.0 22.0 0.00 0.00 0.00 39 1012.5
20260901025251 74 221 22.0 25.0 0.00 0.00 0.00 38 1012.5
20260901024747 74 214 18.0 22.0 0.00 0.00 0.00 37 1012.1
20260901024246 75 189 14.0 16.0 0.00 0.00 0.00 36 1012.1
20260901023743 75 244 19.0 21.0 0.00 0.00 0.00 36 1012.1
20260901023239 75 214 20.0 24.0 0.00 0.00 0.00 35 1012.1
20260901022734 76 216 11.0 14.0 0.00 0.00 0.00 35 1012.0
20260901022230 76 238 22.0 25.0 0.00 0.00 0.00 33 1012.0
20260901021725 76 243 23.0 25.0 0.00 0.00 0.00 32 1012.1
20260901021220 77 248 17.0 21.0 0.00 0.00 0.00 31 1011.9
20260901020715 77 249 23.0 26.0 0.00 0.00 0.00 30 1012.2
20260901020211 77 228 19.0 25.0 0.00 0.00 0.00 30 1012.1
20260901015705 78 227 15.0 18.0 0.00 0.00 0.00 30 1012.2
20260901015201 78 231 13.0 20.0 0.00 0.00 0.00 29 1012.4
20260901014655 78 223 18.0 21.0 0.00 0.00 0.00 30 1012.4
20260901014151 78 234 19.0 22.0 0.00 0.00 0.00 30 1012.1
20260901013647 78 238 19.0 24.0 0.00 0.00 0.00 30 1012.1
20260901013143 79 231 20.0 22.0 0.00 0.00 0.00 30 1011.8
20260901012642 80 246 15.0 18.0 0.00 0.00 0.00 28 1011.9
20260901012132 79 241 18.0 21.0 0.00 0.00 0.00 29 1011.9
20260901011628 80 201 17.0 21.0 0.00 0.00 0.00 29 1012.1
20260901011127 80 246 18.0 22.0 0.00 0.00 0.00 30 1011.9
20260901010621 80 245 10.0 11.0 0.00 0.00 0.00 29 1012.2
20260901010121 80 236 17.0 18.0 0.00 0.00 0.00 29 1012.1
20260901005620 80 279 12.0 14.0 0.00 0.00 0.00 29 1012.5
20260901005116 81 241 16.0 21.0 0.00 0.00 0.00 29 1012.5
20260901004615 81 226 11.0 13.0 0.00 0.00 0.00 29 1012.5
20260901004110 81 259 15.0 16.0 0.00 0.00 0.00 30 1012.6
20260901003605 81 227 13.0 15.0 0.00 0.00 0.00 32 1012.5
20260901003103 82 258 6.0 7.0 0.00 0.00 0.00 31 1012.4
20260901002558 82 272 13.0 15.0 0.00 0.00 0.00 30 1012.6
20260901002053 82 255 13.0 17.0 0.00 0.00 0.00 30 1012.5
20260901001554 82 274 14.0 16.0 0.00 0.00 0.00 30 1012.5
20260901001049 82 223 12.0 14.0 0.00 0.00 0.00 30 1012.4
20260901000544 83 223 7.0 8.0 0.00 0.00 0.00 30 1012.6
20260901000039 83 245 9.0 11.0 0.00 0.00 0.00 28 1012.6
20260831235533 83 244 10.0 11.0 0.00 0.00 0.00 26 1012.4
20260831235029 83 251 11.0 15.0 0.00 0.00 0.00 28 1012.6
20260831234522 83 184 13.0 17.0 0.00 0.00 0.00 26 1012.5
20260831234019 83 192 12.0 14.0 0.00 0.00 0.00 24 1012.6
20260831233513 84 186 13.0 16.0 0.00 0.00 0.00 25 1012.5
20260831233009 84 252 9.0 11.0 0.00 0.00 0.00 24 1012.7
20260831232504 84 233 12.0 17.0 0.00 0.00 0.00 24 1012.5
20260831232000 84 207 17.0 18.0 0.00 0.00 0.00 25 1012.6
20260831231456 84 223 7.0 9.0 0.00 0.00 0.00 25 1012.6